YZ-1S DEB, 43644

Orbit data source: Space-Track

YZ-1S DEB, 43644 is space debris in SSO originally from a launch on Tue, 09 Oct 2018 UTC launched from the Jiuquan Satellite Launch Center, China (JSC). Debris objects in space refer to the collection of defunct objects orbiting the Earth. Examples of debris include non-operational satellites, rocket bodies, and fragments generated from explosions, collisions, or faulty payload assembly.

Loading next visibility...
Identifier
43644, 2018-077C
Orbit
SSO
Country
Flag of CNCN / PRC
Related business
Manufacturer
CALT
Mission
Spacecraft
Bus & Motor
Unknown
Mass
~200 kg wet, ~200 kg dry
Launch date (UTC)
2018-10-09 (8 years ago)
Launch vehicle
Unknown
Launch site
Jiuquan Satellite Launch Center, China (JSC)
Object type
Payload
Rocket body
Debris
Shape & HBR
Cyl + Cone, 1.5 m
Radar Cross Section
8.247 m², Large (>1 m²)

Expand to show TLE details & history
Last TLE update: 11 hours ago

TLE from 11 hours ago
0 YZ-1S DEB
1 43644U 18077C   26265.10154496  .00001244  00000-0  20219-3 0  9993
2 43644  97.9129 304.7996 0008282 109.4697 250.7406 14.72796795424904
Epoch: 2026-09-22T02:26Z
TLE epoch observation values (Epoch: 2026-09-22T02:26:13.484Z)
Latitude
-0.00006°
Longitude
-92.72843°
Altitude
657.09 km
Speed
7.528 km/s
True Right ascension
20h 19m 11s
True Declination
0° 00' 00"
Sunlit
Object was in full shadow at epoch
Visualization orbit readout
Latitude
Unknown
Longitude
Unknown
Altitude
Unknown
Speed
Unknown
Apparent Right ascension
Unknown
Apparent Declination
Unknown
Sunlit
N/A
Visualization observer readout
Local Sidereal Time
06:47:55
Azimuth
Unknown
Elevation
Unknown
Doppler factor
Unknown
Orbital elements
Apogee altitude
655.025 km
Perigee altitude
643.385 km
Semi-major axis
7,027.342 km
Eccentricity
0.00083
Inclination
97.9129°
RAAN
304.7996°
Arg. of periapsis
109.4697°
True anomaly
250.65104°
Mean anomaly
250.7406°
Eccentric anomaly
250.69582°
Mean motion
3.68431 °/min
Orbital period
97.71 mins
BSTAR
0.00020219
Loading maneuver chart data...
Computing Atmospheric mass density...
Loading historical data...
Loading historical data...
Loading historical data...
Loading historical data...
Loading historical data...
Loading historical data...
Loading historical data...
Other satellites on launch #77 in the year 2018 (2018-10-09 UTC)

Documentation

Showing up to 5 results
|